Location: Epalinges
(46.5518°N, 6.6683°E)
Time: 19:37:52
(UTC+00:00)

USA 238 DEB - Pass Details

Date: 20 June 2021
Orbit: 991 x 1221 km, 63.4° (Epoch: 16 July)

Event Time Altitude Azimuth Distance (km) Brightness Sun altitude
Rises 03:00:00 0° 320° (NW) 3,947 6.7 -6.1°
Reaches altitude 10° 03:02:38 10° 321° (NW) 3,018 6.1 -5.8°
Maximum altitude 03:09:55 88° 50° (NE) 1,181 4.0 -4.8°
Drops below altitude 10° 03:17:31 10° 142° (SE) 3,143 6.2 -3.9°
Sets 03:20:18 0° 142° (SE) 4,118 6.7 -3.5°
